Lid_Strength_Index
-2 -2 -2 -2 -2 -2 -2 -2 -2 -2 -2 -2 -2 -2 -2 -2 -2 -0 1 -1 3 6 6 6 5 7 8 8 10 7 8 7 10 12 11 11 11 10 11 11 12 13 14 14 13 14 15 8 10 11 8 6 7 6
-2 -2 -2 -2 -2 -2 -2 -2 -2 -2 -2 -2 -2 -2 -2 -2 -2 -1 2 -1 -1 4 5 2 3 3 4 4 6 7 7 7 7 9 9 8 11 9 10 13 9 12 11 11 11 12 8 8 8 7 6 6 6 5
-2 -2 -2 -2 -2 -2 -2 -2 -2 -2 -2 -2 -2 -2 -2 -2 -2 -1 1 0 1 4 5 5 5 3 2 2 2 9 7 5 6 4 7 9 11 8 11 10 10 9 8 10 10 9 9 8 7 7 6 6 6 5
-2 -2 -2 -2 -2 -2 -2 -2 -2 -2 -2 -2 -2 -2 -2 -2 -2 -1 1 -0 1 4 8 7 1 3 2 1 2 3 5 5 4 5 8 9 11 7 9 9 8 8 8 9 10 8 7 7 7 7 7 6 6 6
-1 -2 -1 -2 -2 -2 -1 -2 -1 -1 -1 -2 -2 -2 -1 -1 -1 -1 -1 -1 -0 4 9 7 3 2 1 1 2 4 5 5 7 9 9 10 8 8 7 7 9 7 8 9 11 8 8 8 6 6 7 7 6 6
-1 -1 -1 -2 -1 -1 -1 -1 -1 -1 -1 -1 -1 -1 -1 -1 -1 1 4 0 -1 0 6 10 3 3 2 2 3 3 4 4 5 8 8 8 6 8 11 11 7 6 6 6 7 6 6 6 6 6 6 6 6 6
-1 -1 -1 -1 -1 -1 -1 -1 -1 -1 -1 -1 -1 -1 -1 -1 -0 3 5 1 -1 0 6 9 9 4 2 3 3 4 3 5 6 7 8 8 8 8 10 12 7 5 5 5 5 6 7 7 7 6 6 5 5 5
-1 -1 -1 -1 -1 -1 -1 -1 -1 -1 -1 -1 -1 -1 -1 -1 -0 2 0 -1 -1 3 5 10 10 7 3 6 7 4 6 6 7 7 7 9 8 8 12 8 7 6 5 5 5 5 5 5 5 5 5 5 6 6
-1 -1 -1 -1 -1 -1 -1 -1 -1 -1 -1 -1 -1 -1 -0 1 3 2 -1 -1 -1 3 8 9 11 10 4 6 5 6 6 9 6 9 9 8 10 13 10 8 7 6 6 6 5 5 5 5 5 5 5 5 6 6
-1 -1 -1 -1 -1 -1 -1 -1 -1 -1 -1 -1 -0 3 7 3 -1 -0 2 5 6 7 6 9 6 10 6 7 8 8 8 10 12 9 7 11 11 7 6 5 5 5 4 4 6 6 5 6 5 5 6 6 6 5
-1 -1 -1 -1 -1 -1 -1 -1 -1 -1 -1 1 5 6 2 -0 2 5 8 9 8 10 8 7 7 8 5 9 10 8 10 10 14 11 11 12 12 8 5 5 4 4 4 4 4 4 4 4 5 5 6 5 5 5
-1 -1 -1 -1 -1 -1 -1 -1 -1 0 1 1 2 1 1 5 8 9 10 9 9 10 7 8 7 6 6 5 8 9 11 11 14 9 12 14 9 6 5 5 4 4 4 4 4 5 5 5 5 5 5 5 5 5
-1 -1 -1 -1 -1 -1 -1 -1 -1 -1 -1 0 4 6 7 8 11 12 13 12 11 8 7 7 9 7 7 6 9 10 12 13 8 13 13 11 7 6 5 5 4 4 4 4 5 4 4 5 4 4 5 4 4 4
-1 -0 -1 -1 -1 -1 -1 -1 -1 -0 1 6 8 11 10 11 10 10 9 8 6 6 6 6 8 9 8 9 10 12 11 11 14 15 13 8 7 5 5 4 4 4 4 4 4 4 4 5 5 4 4 4 4 5
-0 -0 -0 -0 -0 -0 -0 -1 -1 0 3 7 8 11 10 8 7 7 6 6 6 5 6 7 8 8 10 11 10 11 13 15 13 13 8 6 5 6 5 5 5 5 5 5 4 4 4 4 4 5 4 4 4 5
-0 -0 0 -0 -0 -0 -0 -0 0 2 6 7 7 9 8 8 8 7 7 8 5 5 5 7 10 11 12 11 13 13 14 14 11 8 7 7 7 7 7 7 7 6 8 7 6 5 4 4 4 4 5 5 5 5
-0 1 -0 -0 -0 -0 -0 3 5 6 7 8 8 6 7 7 8 7 7 8 6 7 10 10 12 13 10 13 13 10 12 9 8 8 8 8 9 9 8 8 8 7 7 7 7 6 5 5 6 7 8 8 8 8
1 0 -0 -0 0 2 5 5 6 7 9 8 9 7 8 7 8 9 8 8 9 11 11 11 9 12 13 13 12 9 8 8 8 9 9 9 9 9 9 9 8 8 8 8 7 7 7 7 8 9 9 9 10 10
0 0 -0 -0 1 5 7 8 7 8 8 7 7 8 8 9 9 9 10 8 8 9 10 11 11 12 11 10 10 10 9 10 10 11 10 10 10 10 10 9 9 9 9 9 8 9 9 9 9 9 9 10 11 11
-0 -0 -0 1 2 7 8 8 8 8 9 9 9 9 9 10 10 10 10 10 10 10 11 12 12 11 11 11 10 10 10 10 10 11 12 12 11 11 11 11 11 11 11 11 11 11 12 12 12 11 11 11 12 13
4 3 2 5 8 8 8 9 9 9 9 10 9 9 10 9 10 10 10 8 11 13 13 12 12 10 9 9 8 8 9 9 10 11 11 12 12 12 12 12 12 12 13 13 14 14 14 14 14 13 13 14 13 13
7 6 8 7 8 8 9 9 9 9 9 10 9 9 10 10 10 10 9 11 12 13 12 12 12 10 10 11 10 9 9 10 10 11 11 11 12 13 13 12 13 14 14 14 14 14 14 14 14 14 14 14 13 13
7 8 9 9 11 10 11 10 11 11 12 11 10 11 11 10 10 8 11 11 12 11 11 10 10 10 10 10 10 10 10 10 11 11 11 12 12 12 13 13 12 13 14 14 13 13 13 12 12 13 13 13 13 13
9 13 13 13 11 13 10 11 11 11 11 12 12 13 12 11 9 11 13 13 12 11 11 10 9 9 10 10 11 11 10 10 11 11 11 12 13 13 13 12 13 12 13 13 13 13 13 13 12 13 13 14 14 14
12 16 14 15 12 12 13 13 12 12 14 13 12 12 11 9 12 14 14 14 13 13 12 11 11 10 11 11 11 11 10 10 11 12 12 11 12 12 13 13 13 13 11 12 13 14 14 13 13 13 13 14 14 14
17 16 14 14 14 13 12 14 13 13 12 12 12 10 9 12 15 16 15 14 14 13 13 13 12 12 13 12 12 13 12 10 11 13 13 11 11 12 13 13 14 14 12 12 13 13 14 13 13 14 14 14 13 14
16 16 14 12 12 11 12 11 11 12 13 13 11 12 12 16 16 14 12 12 13 13 12 12 12 12 13 13 12 12 12 12 12 13 12 12 12 11 11 13 14 13 11 12 12 12 13 13 13 13 13 13 13 13
15 14 16 15 13 11 13 13 13 13 12 11 12 16 16 16 15 13 12 10 11 11 12 12 12 12 13 12 12 12 12 12 12 12 12 12 12 12 12 12 11 10 10 10 10 10 11 11 11 11 12 12 12 11
15 14 14 18 15 14 14 14 13 13 13 12 14 15 15 14 12 12 11 10 9 10 12 13 13 12 12 13 12 12 11 11 12 14 14 14 14 14 12 11 11 11 11 11 10 10 10 10 10 11 11 11 11 11
15 14 15 16 17 16 14 13 14 12 12 12 12 13 13 12 11 10 10 10 11 11 11 12 12 12 13 13 13 13 12 12 12 12 13 14 14 12 11 11 11 11 11 11 11 11 10 10 11 11 11 12 12 12
14 13 14 14 15 14 12 11 11 11 11 12 11 13 13 12 11 10 11 10 10 10 11 11 12 11 12 12 12 13 14 12 11 11 11 11 11 11 11 11 11 10 10 11 11 11 12 12 12 12 13 13 13 13
13 14 14 16 14 12 11 12 12 12 12 12 12 11 12 12 14 13 11 10 11 11 11 11 12 13 12 12 12 12 11 11 11 10 10 10 10 10 10 10 10 10 11 12 12 12 12 13 13 13 13 13 13 13
13 13 13 13 14 13 12 12 13 14 13 13 13 13 13 13 15 13 11 11 11 12 12 12 12 12 12 12 13 12 12 12 11 10 10 9 9 9 10 11 11 11 12 12 12 12 13 13 13 13 13 13 13 13